timestamp,surface_pressure_avg,surface_temp_avg,battery_voltage,lat,long
2019-02-24 00:00:00+00:00,283.8714,-0.6,12.89,47.84626,-54.09684
2019-02-24 00:10:00+00:00,290.323,-0.6,12.81,47.84626,-54.09684
2019-02-24 00:20:00+00:00,297.443,-0.6,12.89,47.84626,-54.09684
2019-02-24 00:30:00+00:00,301.8246,-0.61,12.89,47.84626,-54.09684
2019-02-24 00:40:00+00:00,311.8813,-0.6,12.97,47.84626,-54.09684
2019-02-24 00:50:00+00:00,324.0314,-0.6,12.97,47.84626,-54.09684
2019-02-24 01:00:00+00:00,331.3146,-0.67,12.81,47.84626,-54.09684
2019-02-24 01:10:00+00:00,334.6196,-0.7,12.73,47.84626,-54.09684
2019-02-24 01:20:00+00:00,341.2363,-0.65,12.89,47.84626,-54.09684
2019-02-24 01:30:00+00:00,346.968,-0.62,12.89,47.84626,-54.09684
2019-02-24 01:40:00+00:00,349.3063,-0.62,12.89,47.84626,-54.09684
2019-02-24 01:50:00+00:00,352.3446,-0.62,12.89,47.84626,-54.09684
2019-02-24 02:00:00+00:00,355.0079,-0.6,12.81,47.84626,-54.09684
2019-02-24 02:10:00+00:00,358.0247,-0.5,12.73,47.84626,-54.09684
2019-02-24 02:20:00+00:00,360.8863,-0.5,12.81,47.84626,-54.09684
2019-02-24 02:30:00+00:00,366.0914,-0.5,12.81,47.84626,-54.09684
2019-02-24 02:40:00+00:00,370.9212,-0.5,12.89,47.84626,-54.09684
2019-02-24 02:50:00+00:00,371.9063,-0.5,12.89,47.84626,-54.09684
2019-02-24 03:00:00+00:00,373.1495,-0.5,12.73,47.84626,-54.09684
2019-02-24 03:10:00+00:00,375.7445,-0.51,12.73,47.84626,-54.09684
2019-02-24 03:20:00+00:00,370.8879,-0.6,12.81,47.84626,-54.09684
2019-02-24 03:30:00+00:00,368.2513,-0.7,12.81,47.84626,-54.09684
2019-02-24 03:40:00+00:00,372.1996,-0.7,12.81,47.84626,-54.09684
2019-02-24 03:50:00+00:00,372.6013,-0.75,12.81,47.84626,-54.09684
2019-02-24 04:00:00+00:00,364.7162,-0.7,12.73,47.84626,-54.09684
2019-02-24 04:10:00+00:00,362.4163,-0.6,12.65,47.84626,-54.09684
2019-02-24 04:20:00+00:00,366.6496,-0.6,12.73,47.84626,-54.09684
2019-02-24 04:30:00+00:00,361.7996,-0.57,12.73,47.84626,-54.09684
2019-02-24 04:40:00+00:00,355.8746,-0.6,12.81,47.84626,-54.09684
2019-02-24 04:50:00+00:00,355.6829,-0.6,12.81,47.84626,-54.09684
2019-02-24 05:00:00+00:00,352.5897,-0.6,12.65,47.84626,-54.09684
2019-02-24 05:10:00+00:00,342.3646,-0.6,12.65,47.84626,-54.09684
2019-02-24 05:20:00+00:00,334.8596,-0.6,12.73,47.84626,-54.09684
2019-02-24 05:30:00+00:00,333.0529,-0.6,12.73,47.84626,-54.09684
2019-02-24 05:40:00+00:00,323.8314,-0.6,12.73,47.84626,-54.09684
2019-02-24 05:50:00+00:00,312.428,-0.6,12.73,47.84626,-54.09684
2019-02-24 06:00:00+00:00,304.9413,-0.6,12.65,47.84626,-54.09684
2019-02-24 06:10:00+00:00,294.3896,-0.61,12.57,47.84626,-54.09684
2019-02-24 06:20:00+00:00,282.6381,-0.7,12.65,47.84626,-54.09684
2019-02-24 06:30:00+00:00,273.178,-0.7,12.65,47.84626,-54.09684
2019-02-24 06:40:00+00:00,266.7198,-0.7,12.73,47.84626,-54.09684
2019-02-24 06:50:00+00:00,257.6647,-0.7,12.73,47.84626,-54.09684
2019-02-24 07:00:00+00:00,248.8514,-0.7,12.65,47.84626,-54.09684
2019-02-24 07:10:00+00:00,244.3297,-0.7,12.57,47.84626,-54.09684
2019-02-24 07:20:00+00:00,239.2981,-0.65,12.65,47.84626,-54.09684
2019-02-24 07:30:00+00:00,229.9798,-0.63,12.65,47.84626,-54.09684
2019-02-24 07:40:00+00:00,224.7048,-0.62,12.65,47.84626,-54.09684
2019-02-24 07:50:00+00:00,221.7231,-0.6,12.65,47.84626,-54.09684
2019-02-24 08:00:00+00:00,215.2031,-0.6,12.57,47.84626,-54.09684
2019-02-24 08:10:00+00:00,210.1431,-0.6,12.57,47.84626,-54.09684
2019-02-24 08:20:00+00:00,207.7615,-0.62,12.65,47.84626,-54.09684
2019-02-24 08:30:00+00:00,205.9664,-0.7,12.65,47.84626,-54.09684
2019-02-24 08:40:00+00:00,206.0148,-0.7,12.65,47.84626,-54.09684
2019-02-24 08:50:00+00:00,209.0131,-0.7,12.65,47.84626,-54.09684
2019-02-24 09:00:00+00:00,210.4497,-0.7,12.57,47.84626,-54.09684
2019-02-24 09:10:00+00:00,209.7231,-0.7,12.57,47.84626,-54.09684
2019-02-24 09:20:00+00:00,211.8698,-0.7,12.65,47.84626,-54.09684
2019-02-24 09:30:00+00:00,212.7131,-0.7,12.65,47.84626,-54.09684
2019-02-24 09:40:00+00:00,210.7415,-0.7,12.65,47.84626,-54.09684
2019-02-24 09:50:00+00:00,212.2031,-0.8,12.65,47.84626,-54.09684
2019-02-24 10:00:00+00:00,215.5131,-0.8,12.57,47.84626,-54.09684
2019-02-24 10:10:00+00:00,215.6331,-0.8,12.57,47.84626,-54.09684
2019-02-24 10:20:00+00:00,217.7415,-0.9,12.65,47.84626,-54.09684
2019-02-24 10:30:00+00:00,223.7681,-0.9,12.65,47.84626,-54.09684
2019-02-24 10:40:00+00:00,228.0048,-0.9,12.89,47.84626,-54.09684
2019-02-24 10:50:00+00:00,231.7214,-0.98,13.29,47.84626,-54.09684
2019-02-24 11:00:00+00:00,239.8148,-1.0,13.76,47.84626,-54.09684
2019-02-24 11:10:00+00:00,247.0165,-1.0,14.72,47.84626,-54.09684
2019-02-24 11:20:00+00:00,250.2214,-1.0,16.63,47.84626,-54.09684
2019-02-24 11:30:00+00:00,253.1314,-1.0,17.03,47.84626,-54.09684
2019-02-24 11:40:00+00:00,259.7398,-1.0,17.18,47.84626,-54.09684
2019-02-24 11:50:00+00:00,265.8065,-1.0,17.18,47.84626,-54.09684
2019-02-24 12:00:00+00:00,269.1914,-1.0,16.47,47.84626,-54.09684
2019-02-24 12:10:00+00:00,273.558,-1.0,16.47,47.84626,-54.09684
2019-02-24 12:20:00+00:00,281.0947,-1.1,17.03,47.84626,-54.09684
2019-02-24 12:30:00+00:00,284.6331,-1.1,16.31,47.84626,-54.09684
2019-02-24 12:40:00+00:00,291.678,-1.1,16.07,47.84626,-54.09684
2019-02-24 12:50:00+00:00,299.718,-1.1,15.83,47.84626,-54.09684
2019-02-24 13:00:00+00:00,307.5597,-1.1,15.51,47.84626,-54.09684
2019-02-24 13:10:00+00:00,313.8014,-1.1,15.6,47.84626,-54.09684
2019-02-24 13:20:00+00:00,323.3813,-1.1,15.67,47.84626,-54.09684
2019-02-24 13:30:00+00:00,331.3197,-1.2,15.6,47.84626,-54.09684
2019-02-24 13:40:00+00:00,337.0563,-1.15,15.51,47.84626,-54.09684
2019-02-24 13:50:00+00:00,342.7528,-1.13,15.51,47.84626,-54.09684
2019-02-24 14:00:00+00:00,348.4463,-1.11,15.27,47.84626,-54.09684
2019-02-24 14:10:00+00:00,353.1879,-1.1,15.35,47.84626,-54.09684
2019-02-24 14:20:00+00:00,354.548,-1.1,15.44,47.84626,-54.09684
2019-02-24 14:30:00+00:00,361.0246,-1.1,15.35,47.84626,-54.09684
2019-02-24 14:40:00+00:00,368.4429,-1.1,15.27,47.84626,-54.09684
2019-02-24 14:50:00+00:00,367.5613,-1.1,15.27,47.84626,-54.09684
2019-02-24 15:00:00+00:00,367.723,-1.1,15.11,47.84626,-54.09684
2019-02-24 15:10:00+00:00,373.7795,-1.1,15.11,47.84626,-54.09684
2019-02-24 15:20:00+00:00,375.9979,-1.1,15.2,47.84626,-54.09684
2019-02-24 15:30:00+00:00,372.4412,-1.1,15.11,47.84626,-54.09684
2019-02-24 15:40:00+00:00,372.7813,-1.04,15.11,47.84626,-54.09684
2019-02-24 15:50:00+00:00,375.0245,-1.01,15.11,47.84626,-54.09684
2019-02-24 16:00:00+00:00,367.4012,-1.0,14.96,47.84626,-54.09684
2019-02-24 16:10:00+00:00,358.8163,-1.0,14.96,47.84626,-54.09684
2019-02-24 16:20:00+00:00,356.4045,-1.0,15.04,47.84626,-54.09684
2019-02-24 16:30:00+00:00,357.7696,-0.96,15.04,47.84626,-54.09684
2019-02-24 16:40:00+00:00,356.7279,-0.94,15.04,47.84626,-54.09684
2019-02-24 16:50:00+00:00,353.5062,-0.91,14.96,47.84626,-54.09684
2019-02-24 17:00:00+00:00,355.4097,-0.9,14.88,47.84626,-54.09684
2019-02-24 17:10:00+00:00,351.428,-0.9,14.88,47.84626,-54.09684
2019-02-24 17:20:00+00:00,346.2247,-0.9,14.96,47.84626,-54.09684
2019-02-24 17:30:00+00:00,343.4997,-0.9,14.88,47.84626,-54.09684
2019-02-24 17:40:00+00:00,339.1146,-0.86,14.88,47.84626,-54.09684
2019-02-24 17:50:00+00:00,329.7029,-0.8,14.88,47.84626,-54.09684
2019-02-24 18:00:00+00:00,321.2913,-0.8,14.8,47.84626,-54.09684
2019-02-24 18:10:00+00:00,316.263,-0.71,14.72,47.84626,-54.09684
2019-02-24 18:20:00+00:00,306.5529,-0.7,14.8,47.84626,-54.09684
2019-02-24 18:30:00+00:00,292.5864,-0.7,14.8,47.84626,-54.09684
2019-02-24 18:40:00+00:00,280.7797,-0.7,14.72,47.84626,-54.09684
2019-02-24 18:50:00+00:00,271.1797,-0.63,14.72,47.84626,-54.09684
2019-02-24 19:00:00+00:00,262.1331,-0.6,14.64,47.84626,-54.09684
2019-02-24 19:10:00+00:00,250.0431,-0.58,14.56,47.84626,-54.09684
2019-02-24 19:20:00+00:00,243.2464,-0.57,14.64,47.84626,-54.09684
2019-02-24 19:30:00+00:00,237.7515,-0.52,14.56,47.84626,-54.09684
2019-02-24 19:40:00+00:00,229.5314,-0.5,14.56,47.84626,-54.09684
2019-02-24 19:50:00+00:00,223.8514,-0.5,14.48,47.84626,-54.09684
2019-02-24 20:00:00+00:00,219.5381,-0.5,14.32,47.84626,-54.09684
2019-02-24 20:10:00+00:00,213.2764,-0.5,14.16,47.84626,-54.09684
2019-02-24 20:20:00+00:00,211.3681,-0.5,14.16,47.84626,-54.09684
2019-02-24 20:30:00+00:00,211.1848,-0.5,14.08,47.84626,-54.09684
2019-02-24 20:40:00+00:00,205.1165,-0.5,14.0,47.84626,-54.09684
2019-02-24 20:50:00+00:00,201.2348,-0.5,14.0,47.84626,-54.09684
2019-02-24 21:00:00+00:00,207.3465,-0.5,13.84,47.84626,-54.09684
2019-02-24 21:10:00+00:00,207.9514,-0.5,13.68,47.84626,-54.09684
2019-02-24 21:20:00+00:00,204.1064,-0.5,13.68,47.84626,-54.09684
2019-02-24 21:30:00+00:00,211.3331,-0.5,13.6,47.84626,-54.09684
2019-02-24 21:40:00+00:00,220.5064,-0.5,13.6,47.84626,-54.09684
2019-02-24 21:50:00+00:00,220.5348,-0.5,13.53,47.84626,-54.09684
2019-02-24 22:00:00+00:00,222.9281,-0.5,13.44,47.84626,-54.09684
2019-02-24 22:10:00+00:00,232.7081,-0.49,13.29,47.84626,-54.09684
2019-02-24 22:20:00+00:00,236.2881,-0.45,13.29,47.84626,-54.09684
2019-02-24 22:30:00+00:00,235.4281,-0.45,13.21,47.84626,-54.09684
2019-02-24 22:40:00+00:00,240.6998,-0.5,13.21,47.84626,-54.09684
2019-02-24 22:50:00+00:00,247.9598,-0.5,13.21,47.84626,-54.09684
2019-02-24 23:00:00+00:00,246.9314,-0.48,13.13,47.84626,-54.09684
2019-02-24 23:10:00+00:00,246.5498,-0.5,12.97,47.84626,-54.09684
2019-02-24 23:20:00+00:00,255.4747,-0.5,13.05,47.84626,-54.09684
2019-02-24 23:30:00+00:00,259.8481,-0.5,12.97,47.84626,-54.09684
2019-02-24 23:40:00+00:00,258.2463,-0.5,12.97,47.84626,-54.09684
2019-02-24 23:50:00+00:00,264.973,-0.5,12.97,47.84626,-54.09684
